sat.trackr.live / text

‹ back to catalog

STARLINK-36173

NORAD 67210 · 2025-304U

PAYLOAD ACTIVE UNKNOWN

§ Identity

Operator
Country
US
Launch date
2025-12-17
Launch site
AFWTR
Launch vehicle
Mass (kg)
RCS (m²)

Purposes: comms

External: N2YO · Heavens-Above · Gunter

§ Orbital elements

Epoch: 2026-09-19T19:42:45.773568Z

Period
96.11 min
Inclination
70.0020°
Eccentricity
0.0002728
Mean motion
14.98329276 rev/d
Perigee alt
570.2 km
Apogee alt
574.0 km
Semi-major
6,950.2 km
B*
2.9920e-4
RAAN
44.9877°
Arg perigee
272.6322°
Mean anomaly
87.4525°
Rev number
4,296

§ Raw data

STARLINK-361731 67210U 25304U   26262.82136312  .00003479  00000+0  29920-3 0  99912 67210  70.0020  44.9877 0002728 272.6322  87.4525 14.98329276 42962

JSON: /api/v1/satellites/67210 · /tle

For live sub-satellite position, see the globe view (requires WebGL).

§ Visibility from observer

Set your observer location to see the next 7 days of passes ≥ 10°. The values pass through the URL so the page stays shareable.

No JS? Fill the form by hand. The geolocation button needs JavaScript.